This is the latest recevied weather packets stored in our database for station/object KB3GVC-13. If no packets are shown the sender has not sent any weather packets the latest 1 day(s).
| Time | Temp. | Humidity | Pressure | Rain* | Wind** | Luminosity | Snow |
|---|---|---|---|---|---|---|---|
| 1778030022 | 23.33° C | 51% | 1011.2 hPa | 0 mm | 0.45 m/s, 160° | - | - |
| 1778029720 | 23.33° C | 50% | 1011 hPa | 0 mm | 1.79 m/s, 172° | - | - |
| 1778029418 | 23.33° C | 50% | 1011 hPa | 0 mm | 0.45 m/s, 155° | - | - |
| 1778029114 | 23.33° C | 49% | 1011.1 hPa | 0 mm | 2.24 m/s, 161° | - | - |
| 1778028811 | 23.33° C | 48% | 1011.1 hPa | 0 mm | 3.13 m/s, 145° | - | - |
| 1778028507 | 23.33° C | 48% | 1011.1 hPa | 0 mm | 2.68 m/s, 127° | - | - |
| 1778028205 | 23.89° C | 48% | 1010.9 hPa | 0 mm | 2.24 m/s, 142° | - | - |
| 1778027901 | 23.33° C | 48% | 1011 hPa | 0 mm | 2.24 m/s, 106° | - | - |
| 1778027597 | 23.89° C | 47% | 1010.9 hPa | 0 mm | 1.34 m/s, 135° | - | - |
| 1778027294 | 23.89° C | 47% | 1010.8 hPa | 0 mm | 1.79 m/s, 192° | - | - |
| 1778026990 | 23.89° C | 47% | 1010.7 hPa | 0 mm | 3.13 m/s, 131° | - | - |
| 1778026686 | 23.89° C | 47% | 1010.8 hPa | 0 mm | 0.89 m/s, 133° | - | - |
| 1778026383 | 24.44° C | 46% | 1010.5 hPa | 0 mm | 0 m/s | - | - |
| 1778026080 | 23.89° C | 46% | 1010.4 hPa | 0 mm | 3.13 m/s, 155° | - | - |
| 1778025778 | 24.44° C | 45% | 1010.4 hPa | 0 mm | 0.45 m/s, 174° | - | - |
| 1778025474 | 24.44° C | 45% | 1010.5 hPa | 0 mm | 2.68 m/s, 141° | - | - |
| 1778025172 | 24.44° C | 44% | 1010.2 hPa | 0 mm | 2.24 m/s, 156° | - | - |
| 1778024869 | 24.44° C | 44% | 1010.3 hPa | 0 mm | 1.34 m/s, 170° | - | - |
| 1778024567 | 25° C | 44% | 1010.4 hPa | 0 mm | 0.45 m/s, 187° | - | - |
| 1778024263 | 25° C | 43% | 1010.4 hPa | 0 mm | 2.68 m/s, 179° | - | - |
| 1778023961 | 25° C | 43% | 1010.6 hPa | 0 mm | 2.68 m/s, 177° | - | - |
| 1778023658 | 25° C | 43% | 1010.5 hPa | 0 mm | 1.79 m/s, 135° | - | - |
| 1778023355 | 25.56° C | 43% | 1010.4 hPa | 0 mm | 1.79 m/s, 255° | - | - |
| 1778023052 | 25.56° C | 43% | 1010.4 hPa | 0 mm | 2.24 m/s, 130° | - | - |
| 1778022751 | 25.56° C | 43% | 1010.5 hPa | 0 mm | 1.34 m/s, 245° | - | - |
* Rain latest hour (hover to see other rain measurements)
** Current wind speed in m/s (hover to see current wind gust speed)